Погода в Перехляе

Россия / Кемеровская область (Кузбасс)     54°52′46″N   86°34′52″E
темп.,
°C
ветер,
м/с
пор.,
м/с
влажн.,
%
обл.,
%
осадки,
мм/ч
давл.,
гПа
погр.,
м
23 октября, сб
сб2301:00+3юз612625 0.0 1025675
04:00+2ююз6146496 0.0 1026876
07:00+2ююз71464100 0.0 1026788
10:00+4ююз8165597 0.0 10251454
13:00+6ююз91749100 0.0 10231611
16:00+6ююз91748100 0.0 10211442
19:00+6ююз91953100 0.1 10201377
22:00+3юз102088100 3.1 10191259
24 октября, вс
вс2401:00+4юз91893100 5.2 10181120
04:00+5юз91789100 0.6 1018940
07:00+5юз101883100 0.8 1018902
10:00+6юз101873100 0.4 10181001
13:00+7юз91570100 0.4 1018965
16:00+8юз9167067 0.1 10191178
19:00+7юз6137916 0.4 1021461
22:00+6юз61384100 0.6 1022439
25 октября, пн
пн2501:00+6ююз51281100 0.8 1022375
04:00+6ююз51181100 0.0 1021345
07:00+6ю61377100 0.0 1020432
10:00+7ююз71567100 0.0 1018621
13:00+10ююз81658100 0.0 1016938
16:00+11юз81554100 0.0 1014954
19:00+9юз71556100 0.0 1016638
22:00+9зюз61258100 0.0 1017520
26 октября, вт
вт2601:00+6зюз3670100 0.0 1018120
04:00+5ююз117599 0.0 101810
07:00+4ююв3580100 0.0 1017101
10:00+6ююв51270100 0.0 1014375
13:00+9ююв51161100 0.0 1011440
16:00+10ююв71556100 0.0 1006519
19:00+9ю71555100 0.0 1005478
22:00+10ююз81842100 0.0 1004740
27 октября, ср
ср2701:00+9зюз81449100 0.0 1006767
04:00+5зюз10156921 0.5 10111536
07:000з915625 0.6 10191371
10:000зюз812605 0.0 10241225
13:00+2зюз710475 0.0 10251468
16:00+2зюз610445 0.0 10261815
19:000юз495717 0.0 1027289
22:00−1юз410605 0.0 1028307